Quillayute, WA
on Friday, December 14, 2012

Friday
Previous Day Next Day
Daily Summary
 ActualAverageRecord
Temperature
Mean Temperature °F / °C 40°F / 4°C  
Max Temperature 45°F / 7°C 46°F / 8°C 55°F / 12°C (2002)
Min Temperature 31°F / -1°C 34°F / 1°C 22°F / -5°C (1972)
Degree Days
Heating Degree Days 27 25  
Month to date heating degree days 342  
Since 1 July heating degree days 2056  
Cooling Degree Days 0 0  
Month to date cooling degree days 0  
Year to date cooling degree days 19  
Moisture
Dew Point 36°F / 2°C   
Average Humidity 97    
Maximum Humidity 100    
Minimum Humidity 74    
Precipitation
Precipitation T in / T cm 0.40 in / 10.16 cm 2.99 in / 7.59 cm (1984)
Month to date precipitation 6.14  
Year to date precipitation 92.69  
Wind
Wind Speed 2 mph / 3 km/h   
Max Wind Speed 7 mph / 11 km/h   
Max Gust Speed 9 mph / 14 km/h   
Visibility 3 miles / 5 kilometers   
Events Fog , Rain   

Key: T is trace of precipitation, MM is missing value
Source: NWS Daily Summary
Time(PST)TemperatureDew PointHumidity Pressure Visibility Wind DirectionWind SpeedGust SpeedPrecipitationEvents Conditions
12:48 AM 41.0°F / 5.0°C 39.2°F / 4.0°C 93% 29.76 in / 1007.7 hPa 7.0 miles / 11.3 kilometers ENE 4.6 mph / 7.4 km/h - N/A   Overcast
12:53 AM 41.0°F / 5.0°C 39.0°F / 3.9°C 93% 29.76 in / 1007.8 hPa 7.0 miles / 11.3 kilometers NE 4.6 mph / 7.4 km/h - N/A   Overcast
1:29 AM 41.0°F / 5.0°C 39.2°F / 4.0°C 93% 29.77 in / 1008.0 hPa 2.5 miles / 4.0 kilometers NNE 3.5 mph / 5.6 km/h - 0.00 in / 0.0 cm Rain Light Rain
1:46 AM 39.2°F / 4.0°C 39.2°F / 4.0°C 100% 29.78 in / 1008.4 hPa 2.0 miles / 3.2 kilometers NNW 3.5 mph / 5.6 km/h - 0.00 in / 0.0 cm Rain Light Rain
1:53 AM 39.9°F / 4.4°C 39.0°F / 3.9°C 97% 29.78 in / 1008.3 hPa 4.0 miles / 6.4 kilometers NE 3.5 mph / 5.6 km/h - 0.00 in / 0.0 cm   Overcast
2:14 AM 39.2°F / 4.0°C 37.4°F / 3.0°C 93% 29.78 in / 1008.4 hPa 8.0 miles / 12.9 kilometers NNW 3.5 mph / 5.6 km/h - N/A   Mostly Cloudy
2:33 AM 39.2°F / 4.0°C 39.2°F / 4.0°C 100% 29.79 in / 1008.7 hPa 7.0 miles / 11.3 kilometers NNW 6.9 mph / 11.1 km/h - N/A   Mostly Cloudy
2:53 AM 39.9°F / 4.4°C 39.0°F / 3.9°C 97% 29.80 in / 1008.9 hPa 2.5 miles / 4.0 kilometers Calm Calm - 0.00 in / 0.0 cm Rain Light Rain
3:03 AM 39.2°F / 4.0°C 39.2°F / 4.0°C 100% 29.79 in / 1008.7 hPa 5.0 miles / 8.0 kilometers Calm Calm - 0.00 in / 0.0 cm   Overcast
3:16 AM 39.2°F / 4.0°C 39.2°F / 4.0°C 100% 29.79 in / 1008.7 hPa 7.0 miles / 11.3 kilometers East 4.6 mph / 7.4 km/h - 0.00 in / 0.0 cm   Overcast
3:37 AM 39.2°F / 4.0°C 39.2°F / 4.0°C 100% 29.79 in / 1008.7 hPa 8.0 miles / 12.9 kilometers Calm Calm - 0.00 in / 0.0 cm   Overcast
3:53 AM 39.2°F / 4.0°C 39.2°F / 4.0°C 100% 29.79 in / 1008.7 hPa 8.0 miles / 12.9 kilometers Calm Calm - N/A   Overcast
4:42 AM 37.4°F / 3.0°C 37.4°F / 3.0°C 100% 29.79 in / 1008.7 hPa 1.8 miles / 2.8 kilometers Calm Calm - N/A   Scattered Clouds
4:50 AM 37.4°F / 3.0°C 37.4°F / 3.0°C 100% 29.79 in / 1008.7 hPa 1.0 miles / 1.6 kilometers Calm Calm - N/A   Partly Cloudy
4:53 AM 37.0°F / 2.8°C 36.0°F / 2.2°C 96% 29.80 in / 1009.0 hPa 1.2 miles / 2.0 kilometers Calm Calm - N/A   Clear
5:01 AM 37.4°F / 3.0°C 37.4°F / 3.0°C 100% 29.79 in / 1008.7 hPa 2.0 miles / 3.2 kilometers Calm Calm - N/A   Scattered Clouds
5:11 AM 35.6°F / 2.0°C 35.6°F / 2.0°C 100% 29.79 in / 1008.7 hPa 5.0 miles / 8.0 kilometers Calm Calm - N/A   Scattered Clouds
5:15 AM 37.4°F / 3.0°C 35.6°F / 2.0°C 93% 29.79 in / 1008.7 hPa 1.8 miles / 2.8 kilometers East 3.5 mph / 5.6 km/h - N/A   Scattered Clouds
5:23 AM 35.6°F / 2.0°C 35.6°F / 2.0°C 100% 29.79 in / 1008.7 hPa 1.0 miles / 1.6 kilometers Calm Calm - N/A   Scattered Clouds
5:26 AM 35.6°F / 2.0°C 35.6°F / 2.0°C 100% 29.80 in / 1009.0 hPa 0.8 miles / 1.2 kilometers North 3.5 mph / 5.6 km/h - N/A   Mostly Cloudy
5:38 AM 35.6°F / 2.0°C 35.6°F / 2.0°C 100% 29.80 in / 1009.0 hPa 0.8 miles / 1.2 kilometers Calm Calm - N/A   Mist
5:42 AM 35.6°F / 2.0°C 35.6°F / 2.0°C 100% 29.80 in / 1009.0 hPa 1.2 miles / 2.0 kilometers Calm Calm - N/A   Partly Cloudy
5:48 AM 35.6°F / 2.0°C 33.8°F / 1.0°C 93% 29.80 in / 1009.0 hPa 0.8 miles / 1.2 kilometers Calm Calm - N/A   Mist
5:53 AM 34.0°F / 1.1°C 34.0°F / 1.1°C 100% 29.81 in / 1009.3 hPa 0.5 miles / 0.8 kilometers Calm Calm - N/A Fog Fog
6:05 AM 35.6°F / 2.0°C 35.6°F / 2.0°C 100% 29.80 in / 1009.0 hPa 0.2 miles / 0.4 kilometers Calm Calm - N/A Fog Fog
6:24 AM 35.6°F / 2.0°C 35.6°F / 2.0°C 100% 29.81 in / 1009.4 hPa 1.0 miles / 1.6 kilometers Calm Calm - N/A   Mist
6:32 AM 33.8°F / 1.0°C 33.8°F / 1.0°C 100% 29.81 in / 1009.4 hPa 1.2 miles / 2.0 kilometers Calm Calm - N/A   Scattered Clouds
6:41 AM 33.8°F / 1.0°C 33.8°F / 1.0°C 100% 29.81 in / 1009.4 hPa 2.0 miles / 3.2 kilometers Calm Calm - N/A   Partly Cloudy
6:53 AM 32.0°F / 0.0°C 32.0°F / 0.0°C 100% 29.83 in / 1009.9 hPa 1.2 miles / 2.0 kilometers Calm Calm - N/A   Clear
7:06 AM 32.0°F / 0.0°C 30.2°F / -1.0°C 93% 29.82 in / 1009.7 hPa 2.0 miles / 3.2 kilometers Calm Calm - N/A   Clear
7:10 AM 30.2°F / -1.0°C 30.2°F / -1.0°C 100% 29.82 in / 1009.7 hPa 1.8 miles / 2.8 kilometers Calm Calm - N/A   Partly Cloudy
7:13 AM 32.0°F / 0.0°C 30.2°F / -1.0°C 93% 29.83 in / 1010.0 hPa 1.0 miles / 1.6 kilometers Calm Calm - N/A   Mist
7:20 AM 32.0°F / 0.0°C 32.0°F / 0.0°C 100% 29.83 in / 1010.0 hPa 0.8 miles / 1.2 kilometers ENE 3.5 mph / 5.6 km/h - N/A   Mist
7:35 AM 33.8°F / 1.0°C 33.8°F / 1.0°C 100% 29.83 in / 1010.0 hPa 0.5 miles / 0.8 kilometers Calm Calm - N/A Fog Fog
7:48 AM 32.0°F / 0.0°C 32.0°F / 0.0°C 100% 29.83 in / 1010.0 hPa 1.0 miles / 1.6 kilometers Calm Calm - N/A   Mist
7:49 AM 32.0°F / 0.0°C 32.0°F / 0.0°C 100% 29.84 in / 1010.5 hPa 1.0 miles / 1.6 kilometers Calm Calm - N/A   Mist
8:03 AM 32.0°F / 0.0°C 30.2°F / -1.0°C 93% 29.84 in / 1010.4 hPa 0.2 miles / 0.4 kilometers Calm Calm - N/A Fog Fog
8:12 AM 32.0°F / 0.0°C 30.2°F / -1.0°C 93% 29.84 in / 1010.4 hPa 0.2 miles / 0.4 kilometers ENE 3.5 mph / 5.6 km/h - N/A Fog Fog
8:42 AM 32.0°F / 0.0°C 32.0°F / 0.0°C 100% 29.85 in / 1010.7 hPa 0.2 miles / 0.4 kilometers Calm Calm - N/A Fog Fog
8:53 AM 32.0°F / 0.0°C 32.0°F / 0.0°C 100% 29.86 in / 1011.1 hPa 0.2 miles / 0.4 kilometers Calm Calm - N/A Fog Fog
9:53 AM 33.1°F / 0.6°C 33.1°F / 0.6°C 100% 29.88 in / 1011.7 hPa 0.2 miles / 0.4 kilometers Calm Calm - N/A Fog Fog
10:53 AM 35.1°F / 1.7°C 35.1°F / 1.7°C 100% 29.89 in / 1012.1 hPa 0.2 miles / 0.4 kilometers Calm Calm - N/A Fog Fog
11:28 AM 37.4°F / 3.0°C 37.4°F / 3.0°C 100% 29.88 in / 1011.7 hPa 0.2 miles / 0.4 kilometers ESE 3.5 mph / 5.6 km/h - N/A Fog Fog
11:53 AM 37.0°F / 2.8°C 37.0°F / 2.8°C 100% 29.88 in / 1011.9 hPa 0.2 miles / 0.4 kilometers Calm Calm - N/A Fog Fog
12:22 PM 39.2°F / 4.0°C 39.2°F / 4.0°C 100% 29.88 in / 1011.7 hPa 0.2 miles / 0.4 kilometers SE 3.5 mph / 5.6 km/h - N/A Fog Fog
12:53 PM 39.9°F / 4.4°C 39.9°F / 4.4°C 100% 29.89 in / 1012.0 hPa 0.2 miles / 0.4 kilometers Calm Calm - N/A Fog Fog
12:59 PM 39.2°F / 4.0°C 39.2°F / 4.0°C 100% 29.88 in / 1011.7 hPa 0.5 miles / 0.8 kilometers Calm Calm - N/A Fog Fog
1:10 PM 39.2°F / 4.0°C 39.2°F / 4.0°C 100% 29.88 in / 1011.7 hPa 0.2 miles / 0.4 kilometers ESE 3.5 mph / 5.6 km/h - N/A Fog Fog
1:18 PM 39.2°F / 4.0°C 39.2°F / 4.0°C 100% 29.88 in / 1011.7 hPa 0.8 miles / 1.2 kilometers Calm Calm - N/A   Mist
1:20 PM 41.0°F / 5.0°C 41.0°F / 5.0°C 100% 29.88 in / 1011.7 hPa 2.5 miles / 4.0 kilometers Calm Calm - N/A   Mostly Cloudy
1:27 PM 41.0°F / 5.0°C 39.2°F / 4.0°C 93% 29.88 in / 1011.7 hPa 5.0 miles / 8.0 kilometers ESE 3.5 mph / 5.6 km/h - N/A   Mostly Cloudy
1:35 PM 41.0°F / 5.0°C 41.0°F / 5.0°C 100% 29.88 in / 1011.7 hPa 6.0 miles / 9.7 kilometers Calm Calm - N/A   Scattered Clouds
1:53 PM 44.1°F / 6.7°C 39.9°F / 4.4°C 85% 29.89 in / 1012.0 hPa 6.0 miles / 9.7 kilometers ESE 3.5 mph / 5.6 km/h - N/A   Clear
2:53 PM 45.0°F / 7.2°C 37.0°F / 2.8°C 74% 29.88 in / 1011.9 hPa 6.0 miles / 9.7 kilometers Calm Calm - N/A   Haze
3:53 PM 42.1°F / 5.6°C 37.9°F / 3.3°C 85% 29.90 in / 1012.3 hPa 6.0 miles / 9.7 kilometers Calm Calm - N/A   Clear
4:29 PM 37.4°F / 3.0°C 37.4°F / 3.0°C 100% 29.89 in / 1012.1 hPa 1.8 miles / 2.8 kilometers Calm Calm - N/A   Clear
4:40 PM 37.4°F / 3.0°C 37.4°F / 3.0°C 100% 29.89 in / 1012.1 hPa 3.0 miles / 4.8 kilometers East 3.5 mph / 5.6 km/h - N/A   Clear
4:53 PM 37.0°F / 2.8°C 36.0°F / 2.2°C 96% 29.90 in / 1012.4 hPa 6.0 miles / 9.7 kilometers Calm Calm - N/A   Clear
5:53 PM 35.1°F / 1.7°C 34.0°F / 1.1°C 96% 29.90 in / 1012.4 hPa 6.0 miles / 9.7 kilometers East 4.6 mph / 7.4 km/h - N/A   Clear
6:53 PM 35.1°F / 1.7°C 34.0°F / 1.1°C 96% 29.90 in / 1012.5 hPa 7.0 miles / 11.3 kilometers ENE 4.6 mph / 7.4 km/h - N/A   Clear
7:53 PM 35.1°F / 1.7°C 34.0°F / 1.1°C 96% 29.91 in / 1012.9 hPa 7.0 miles / 11.3 kilometers ENE 4.6 mph / 7.4 km/h - N/A   Clear
8:53 PM 36.0°F / 2.2°C 34.0°F / 1.1°C 93% 29.90 in / 1012.4 hPa 7.0 miles / 11.3 kilometers East 4.6 mph / 7.4 km/h - N/A   Overcast
9:53 PM 36.0°F / 2.2°C 34.0°F / 1.1°C 93% 29.88 in / 1011.8 hPa 8.0 miles / 12.9 kilometers East 4.6 mph / 7.4 km/h - N/A   Scattered Clouds
10:53 PM 35.1°F / 1.7°C 33.1°F / 0.6°C 92% 29.86 in / 1011.1 hPa 8.0 miles / 12.9 kilometers East 5.8 mph / 9.3 km/h - N/A   Partly Cloudy
11:53 PM 37.0°F / 2.8°C 32.0°F / 0.0°C 82% 29.84 in / 1010.5 hPa 8.0 miles / 12.9 kilometers ESE 4.6 mph / 7.4 km/h - N/A   Mostly Cloudy
Moon Phase
Dec. 14 Dec. 20 Dec. 28 Jan. 04 Jan. 11
Sunrise:08:00 AM (PST) Moon Rise:09:06 AM (PST)12/14
Sunset:04:25 PM (PST) Moon Set:06:30 PM (PST)12/14

Copyright © 2014 The Weather Underground, Inc.